Location: G�kdere
(37.0328°N, 30.9000°E)
Time: 02:15:32
(UTC+00:00)

Cosmos 2341 Rocket - Pass Details

Date: 03 March 2021
Orbit: 968 x 1004 km, 82.9° (Epoch: 22 April)

Event Time Altitude Azimuth Distance (km) Brightness Sun altitude
Rises 16:41:19 0° 166° (SSE) 3,701 6.9 -10.5°
Reaches altitude 10° 16:43:56 10° 161° (SSE) 2,751 6.2 -11.1°
Maximum altitude 16:49:53 45° 90° (E) 1,318 4.3 -12.2°
Drops below altitude 10° 16:55:49 10° 20° (NNE) 2,743 6.2 -13.4°
Sets 16:58:25 0° 14° (NNE) 3,690 6.9 -13.9°
